パンスターズ彗星

P/2019 A3 ( PanSTARRS )

English version
Home page
Updated on May 20, 2019

---------------------------------------------------------------------

・ プロフィール

発見日 2019年1月3日
発見光度 21.9等
発見者 Pan-STARRS 1 telescope (Haleakala)

・ 軌道要素

Epoch 2018 July 21.0 TT = JDT 2458320.5
T 2018 Aug. 1.80138 TT                                  MPCW
q   2.3134133            (2000.0)            P               Q
n   0.17656776     Peri.  325.47279     +0.98790903     +0.07103085
a   3.1467466      Node    31.33339     +0.02451113     +0.80612997
e   0.2648238      Incl.   15.36707     -0.15308479     +0.58745986
P   5.58
From 36 observations 2018 Aug. 8-2019 Jan. 24, mean residual 0".3.

・ 光度変化

        m1 = 17.0 + 5 logΔ + 10.0 log r

---------------------------------------------------------------------

軌道要素はM.P.E.C. 2019-J142に掲載されたものです。
光度グラフはComet for Windowsで作成したものです。

---------------------------------------------------------------------

Copyright(C) Seiichi Yoshida (comet@aerith.net). All rights reserved.